www.pogodaiklimat.ru

Погода и климат >> Архив погоды >> Кувейт >> Метеостанция Sabriyah


ПОГОДА на Метеостанции Sabriyah

  • Прогноз погоды на Метеостанции Sabriyah
  • Монитор погоды на Метеостанции Sabriyah

АРХИВ ПОГОДЫ на Метеостанции Sabriyah

Время (UTC), дата Ветер
(напр.,м/с)
 
Видим.   Явления Облачность Т
(С)
Тd
(С)
f
(%)
Тe
(С)
Тes
(С)
Комфортность P
(гПа)
Po
(гПа)
Тmin
(С)
Tmax
(С)
R
(мм)
R24
(мм)
S
(см)
09 17.02 С 5-8
{8}
н/о н/о +19.7 +6.9 43 +20 +20 1020.3 1013.7
12 17.02 С 5-9
{11}
н/о н/о +21.4 +8.5 44 +23 +23 комфорт 1017.9 1011.3
15 17.02 СЗ 5-6
{11}
н/о н/о +18.6 +5.8 43 +19 +19 1018.0 1011.3
18 17.02 СЗ 2-2
{11}
н/о н/о +14.3 +1.7 42 +14 +14 1019.3 1012.5
21 17.02 З 2-2
{3}
н/о н/о +11.9 -0.5 42 +12 +12 1018.9 1012.1 +7.1 +21.6
00 18.02 СЗ 3-3
{3}
н/о н/о +10.1 -2.3 42 +9 +9 1018.2 1011.3
03 18.02 З 2-2
{3}
н/о н/о +9.0 -3.3 42 +8 +8 1018.2 1011.3
06 18.02 СЗ 3-3
{4}
н/о н/о +14.4 +1.7 42 +14 +14 1018.8 1012.0
09 18.02 СЗ 5-7
{7}
н/о н/о +19.5 +6.7 43 +20 +20 1017.2 1010.6
15 18.02 СЗ 3-4
{8}
н/о н/о +17.7 +4.9 43 +18 +18 1013.6 1007.0
18 18.02 С 2-3
{8}
н/о н/о +15.7 +3.0 43 +16 +16 1014.5 1007.8
21 18.02 С 4-5
{5}
н/о н/о +12.8 +0.3 42 +12 +12 1013.5 1006.7 +8.4 +20.7
00 19.02 С 1-2
{5}
н/о н/о +12.1 -0.4 42 +12 +12 1013.1 1006.3
03 19.02 СЗ 1-1
{3}
н/о н/о +11.2 -1.2 42 +11 +11 1014.2 1007.4
06 19.02 СЗ 3-3
{4}
н/о н/о +13.8 +1.3 43 +13 +13 1015.7 1008.9
09 19.02 СЗ 6-9
{9}
н/о н/о +17.1 +4.3 43 +16 +16 1015.5 1008.8
12 19.02 С 8-11
{13}
н/о н/о +19.1 +6.2 43 +19 +19 1014.7 1008.1
15 19.02 С 6-8
{12}
н/о н/о +17.3 +4.5 43 +16 +16 1016.3 1009.6
18 19.02 СЗ 4-4
{12}
н/о н/о +13.3 +0.7 42 +12 +12 1018.3 1011.5
21 19.02 З 3-3
{4}
н/о н/о +10.6 -1.9 42 +9 +9 1018.8 1012.0 +10.5 +19.5
00 20.02 СЗ 3-4
{4}
н/о н/о +9.0 -3.4 41 +7 +7 1018.8 1011.9
03 20.02 З 2-3
{3}
н/о н/о +7.7 -4.7 41 +6 +6 1019.7 1012.8
06 20.02 СЗ 5-5
{5}
н/о н/о +14.1 +1.4 42 +13 +13 1021.1 1014.3
09 20.02 СЗ 4-7
{7}
н/о н/о +19.5 +6.5 43 +20 +20 1020.4 1013.7
12 20.02 СЗ 6-8
{9}
н/о н/о +20.7 +7.7 43 +22 +22 комфорт 1018.9 1012.3
15 20.02 СЗ 4-4
{9}
н/о н/о +18.0 +5.1 43 +18 +18 1019.2 1012.5
18 20.02 С 1-2
{9}
н/о н/о +14.9 +2.2 42 +16 +16 1020.8 1014.0
21 20.02 ЮЗ 1-1
{4}
н/о н/о +11.9 -0.6 42 +12 +12 1020.8 1014.0 +7.5 +21.0
00 21.02 З 2-2
{4}
н/о н/о +9.7 -2.7 42 +9 +9 1020.7 1013.8
03 21.02 СЗ 2-2
{3}
н/о н/о +8.9 -3.6 41 +8 +8 1021.5 1014.6
06 21.02 З 1-2
{3}
н/о н/о +14.3 +1.6 42 +15 +15 1023.1 1016.3
09 21.02 З 3-5
{5}
н/о н/о +20.1 +7.2 43 +21 +21 комфорт 1021.5 1014.9
12 21.02 З 2-3
{5}
н/о н/о +21.3 +8.3 43 +22 +22 комфорт 1019.4 1012.8
15 21.02 ЮВ 5-7
{7}
н/о н/о +18.2 +5.3 43 +18 +18 1020.0 1013.3
18 21.02 Ю 2-4
{8}
н/о н/о +14.5 +1.8 42 +14 +14 1021.1 1014.3
21 21.02 Ю 3-4
{5}
н/о н/о +12.1 -0.5 42 +11 +11 1020.8 1014.0 +8.1 +22.3
00 22.02 ЮВ 3-3
{5}
н/о н/о +10.9 -1.7 41 +10 +10 1019.4 1012.6
03 22.02 ЮЗ 1-2
{4}
н/о н/о +9.9 -2.6 41 +11 +11 1019.8 1012.9
06 22.02 ЮЗ 4-6
{6}
н/о н/о +15.6 +2.8 42 +15 +15 1021.4 1014.7
09 22.02 Ю 5-8
{8}
н/о н/о +19.3 +6.3 43 +20 +20 1019.0 1012.4
12 22.02 Ю 5-7
{9}
н/о н/о +19.4 +6.4 43 +20 +20 1017.2 1010.6
15 22.02 ЮВ 6-7
{10}
н/о н/о +16.9 +4.1 43 +16 +16 1017.3 1010.6
18 22.02 Ю 2-3
{10}
н/о н/о +14.2 +1.5 42 +14 +14 1018.5 1011.7
21 22.02 ЮВ 4-5
{5}
н/о н/о +12.9 +0.3 42 +11 +11 1017.9 1011.1 +9.2 +20.7
00 23.02 ЮВ 3-3
{6}
н/о н/о +12.0 -0.6 42 +11 +11 1017.3 1010.5
03 23.02 В 4-5
{5}
н/о н/о +11.9 -0.7 42 +10 +10 1017.8 1011.0
06 23.02 В 7-10
{10}
н/о н/о +16.9 +4.1 43 +16 +16 1018.3 1011.6
09 23.02 ЮВ 7-10
{11}
н/о н/о +20.5 +7.5 43 +21 +21 комфорт 1017.1 1010.5
12 23.02 Ю 7-10
{13}
18 км н/о +21.4 +8.4 43 +23 +23 комфорт 1015.5 1008.9
15 23.02 ЮВ 7-8
{11}
17 км н/о +18.0 +5.1 43 +17 +17 1015.7 1009.0
18 23.02 ЮВ 4-5
{11}
6000 м н/о +15.1 +2.4 42 +14 +14 1016.9 1010.2
21 23.02 ЮВ 3-4
{5}
2000 м н/о +14.2 +1.6 42 +13 +13 1016.8 1010.1 +11.7 +22.0
00 24.02 ЮВ 3-3
{5}
<100 м н/о +12.7 +0.1 42 +12 +12 1016.0 1009.2
03 24.02 СЗ 2-2
{3}
<100 м н/о +14.1 +1.5 42 +14 +14 1016.8 1010.0

 

Местоположение метеостанции Метеостанция Sabriyah (Кувейт): широта 29.75 долгота 47.85 высота над уровнем моря 56 м.

В архиве по умолчанию представлена погода на Метеостанции Sabriyah за последнюю неделю. Архивные данные за месяц целиком и за предыдущие месяцы, начиная с января 2011 года, Вы можете получить, выбрав интересующий диапазон дат из раскрывающегося списка и нажав кнопку "Ввод!".


*Определитесь, кто Вы:
робот инопланетянин человек

Внимание! Время в таблицах - всемирное. Для получения местного времени необходимо прибавить поправку, которая равна 3 ч.

Смотрите также архив погоды в соседних городах и на ближайших метеорологических станциях:

Погода на Метеостанции Jal Aliyah (Кувейт) (30 км)
Погода в Абдали (Кувейт) (39 км)
Погода на Метеостанции Mintribah (Кувейт) (47 км)
Погода в Кувейт Сити (Кувейт) (51 км)
Погода в Аль-Шуаиба (Кувейт) (51 км)
Погода в Эль-Джахра (Кувейт) (51 км)
Погода на Бубияне (Кувейт) (51 км)
Погода на Экспериментальной ферме (Кувейт) (52 км)
Погода Остров Файлака (Кувейт) (52 км)
Погода в Сулайбии (Кувейт) (55 км)

Пояснения к столбцам:

Ветер - указаны скорость ветра в м/с - средняя за 10 мин, порывы в срок и между сроками (в фигурных скобках) и направление, откуда дует ветер: С - северный, СВ - северо-восточный, В - восточный, ЮВ - юго-восточный, Ю - южный, ЮЗ - юго-западный, З - западный, СЗ - северо-западный.
Видимость - горизонтальная дальность видимости в метрах или километрах. При видимости от 1 до 10 км при отсутствии осадков обычно наблюдается дымка, при ухудшении видимости до 1 км и менее - туман. В сухую погоду видимость может ухудшаться дымом, пылью или мглою.
Явления - указаны атмосферные явления, наблюдавшиеся в срок или в последний час перед сроком; фигурными скобками обозначены явления, наблюдавшиеся между сроками (за 1-3 часа до срока); квадратными скобками обозначены град или гололедные отложения с указанием их диаметра в мм.
Облачность - указаны через наклонную черту общая и нижняя облачность в баллах и высота нижней границы облаков в метрах; квадратными скобками обозначены формы облаков: Ci - перистые, Cs - перисто-слоистые, Cc - перисто-кучевые, Ac - высококучевые, As - высокослоистые, Sc - слоисто-кучевые, Ns - слоисто-дождевые, Cu - кучевые, Cb - кучево-дождевые. Подробнее классификацию облаков см. в Атласе облаков (PDF).
T - Температура воздуха - температура, измеренная на высоте 2 м над землей.
Td - Температура точки росы - температура, при понижении до которой содержащийся в воздухе водяной пар достигнет насыщения.
f - Относительная влажность воздуха - влажноcть воздуха, измеренная на высоте 2 м над землей.
Te - Эффективная температура - температура, которую ощущает одетый по сезону человек в тени. Характеристика душности погоды. При расчете учитывается влияние влажности воздуха и скорости ветра на теплоощущения человека.
Tes - Эффективная температура на солнце - температура, которую ощущает человек, с поправкой на солнечный нагрев. Характеристика знойности погоды. Зависит от высоты солнца над горизонтом, облачности и скорости ветра. Ночью, в пасмурную погоду, а также при ветре 12 м/с и более поправка равна нулю.
P - Атмосферное давление - приведенное к уровню моря атмосферное давление.
Po - Атмосферное давление - измеренное на уровне метеостанции атмосферное давление.
Tmin - Минимальная температура - минимум температуры воздуха на высоте 2 м над землей.
Tmax - Максимальная температура - максимум температуры воздуха на высоте 2 м над землей.
R - Количество осадков - Количество выпавших осадков за период времени, мм. При наведении курсора мыши на число - период времени, за который выпало указанное количество осадков.
R24 - Количество осадков - Количество выпавших осадков за 24 часа, мм.
S - Снежный покров - Высота снежного покрова, см. При наведении курсора мыши на число - состояние снежного покрова и степень покрытия местности в баллах.